| time (UTC) | temp F | wind direction | speed knots | gust knots | rain 1hr in | rain 24hr in | rain mn in | humidity % | barometer mb |
| 20260504150346 | 60 | 163 | 4.3 | 8.7 | 0.00 | 0.00 | 0.00 | 52 | 1009.8 |
| 20260504130646 | 47 | 157 | 2.6 | 5.2 | 0.00 | 0.00 | 0.00 | 65 | 1010.6 |
| 20260504081845 | 41 | 169 | 2.6 | 3.5 | 0.00 | 0.00 | 0.00 | 70 | 1010.9 |
| 20260504081608 | 40 | 187 | 2.6 | 3.5 | 0.00 | 0.00 | 0.00 | 70 | 1012.6 |
| 20260504080945 | 41 | 169 | 2.6 | 3.5 | 0.00 | 0.00 | 0.00 | 70 | 1010.9 |
| 20260504060104 | 41 | 120 | 0.0 | 1.7 | 0.00 | 0.00 | 0.00 | 70 | 1013.0 |
| 20260504044506 | 42 | 131 | 0.0 | 0.9 | 0.00 | 0.00 | 0.00 | 68 | 1013.3 |
| 20260504044245 | 42 | 130 | 0.0 | 0.9 | 0.00 | 0.00 | 0.00 | 67 | 1011.4 |
| 20260504043344 | 42 | 134 | 0.0 | 1.7 | 0.00 | 0.00 | 0.00 | 67 | 1011.4 |
| 20260504043106 | 42 | 131 | 0.0 | 1.7 | 0.00 | 0.00 | 0.00 | 67 | 1013.3 |
| 20260504041545 | 42 | 87 | 0.0 | 1.7 | 0.00 | 0.00 | 0.00 | 67 | 1011.4 |
| 20260504041503 | 42 | 84 | 0.0 | 1.7 | 0.00 | 0.00 | 0.00 | 67 | 1013.3 |
| 20260504040645 | 42 | 104 | 0.0 | 1.7 | 0.00 | 0.00 | 0.00 | 67 | 1011.3 |
| 20260504040137 | 42 | 104 | 0.0 | 0.9 | 0.00 | 0.00 | 0.00 | 67 | 1013.3 |
| 20260504035745 | 42 | 104 | 0.0 | 0.9 | 0.00 | 0.00 | 0.00 | 66 | 1011.4 |
| 20260504034844 | 42 | 104 | 0.0 | 0.9 | 0.00 | 0.00 | 0.00 | 67 | 1011.5 |
| 20260504034503 | 42 | 105 | 0.0 | 0.9 | 0.00 | 0.00 | 0.00 | 67 | 1013.3 |
| 20260504033945 | 42 | 104 | 0.0 | 0.9 | 0.00 | 0.00 | 0.00 | 66 | 1011.4 |
| 20260504033104 | 42 | 105 | 0.0 | 0.9 | 0.00 | 0.00 | 0.00 | 66 | 1013.3 |
| 20260504032145 | 43 | 104 | 0.0 | 0.9 | 0.00 | 0.00 | 0.00 | 66 | 1011.5 |
| 20260504031506 | 43 | 104 | 0.0 | 1.7 | 0.00 | 0.00 | 0.00 | 65 | 1013.4 |
| 20260504031245 | 43 | 126 | 0.0 | 1.7 | 0.00 | 0.00 | 0.00 | 65 | 1011.5 |
| 20260504025444 | 43 | 160 | 0.0 | 0.9 | 0.00 | 0.00 | 0.00 | 66 | 1011.5 |
| 20260504024544 | 43 | 160 | 0.0 | 0.9 | 0.00 | 0.00 | 0.00 | 65 | 1011.5 |
| 20260504024503 | 42 | 161 | 0.0 | 0.9 | 0.00 | 0.00 | 0.00 | 65 | 1013.5 |
| 20260504023644 | 43 | 159 | 0.0 | 0.9 | 0.00 | 0.00 | 0.00 | 65 | 1011.6 |
| 20260504023104 | 43 | 161 | 0.0 | 0.9 | 0.00 | 0.00 | 0.00 | 64 | 1013.6 |
| 20260504022744 | 43 | 0 | 0.0 | 0.0 | 0.00 | 0.00 | 0.00 | 64 | 1011.6 |
| 20260504021845 | 44 | 0 | 0.0 | 0.0 | 0.00 | 0.00 | 0.00 | 63 | 1011.6 |
| 20260504021503 | 43 | 161 | 0.0 | 0.9 | 0.00 | 0.00 | 0.00 | 62 | 1013.6 |
| 20260504020945 | 44 | 159 | 0.0 | 0.9 | 0.00 | 0.00 | 0.00 | 62 | 1011.6 |
| 20260504020112 | 44 | 160 | 0.0 | 0.9 | 0.00 | 0.00 | 0.00 | 61 | 1013.6 |
| 20260504020044 | 45 | 160 | 0.0 | 0.9 | 0.00 | 0.00 | 0.00 | 61 | 1011.6 |
| 20260504015144 | 45 | 160 | 0.0 | 0.9 | 0.00 | 0.00 | 0.00 | 60 | 1011.5 |
| 20260504014502 | 45 | 160 | 0.0 | 0.9 | 0.00 | 0.00 | 0.00 | 59 | 1013.4 |
| 20260504013345 | 46 | 165 | 0.0 | 0.9 | 0.00 | 0.00 | 0.00 | 59 | 1011.4 |
| 20260504013103 | 45 | 161 | 0.0 | 1.7 | 0.00 | 0.00 | 0.00 | 58 | 1013.4 |
| 20260504012445 | 46 | 146 | 0.0 | 1.7 | 0.00 | 0.00 | 0.00 | 58 | 1011.4 |
| 20260504011545 | 46 | 112 | 0.0 | 0.9 | 0.00 | 0.00 | 0.00 | 58 | 1011.3 |
| 20260504011503 | 46 | 124 | 0.0 | 1.7 | 0.00 | 0.00 | 0.00 | 58 | 1013.3 |
| 20260504010645 | 46 | 94 | 0.0 | 0.9 | 0.00 | 0.00 | 0.00 | 57 | 1011.3 |
| 20260504010105 | 46 | 94 | 0.0 | 1.7 | 0.00 | 0.00 | 0.00 | 56 | 1013.3 |
| 20260504005744 | 47 | 105 | 0.9 | 2.6 | 0.00 | 0.00 | 0.00 | 56 | 1011.3 |
| 20260504004844 | 47 | 99 | 0.9 | 2.6 | 0.00 | 0.00 | 0.00 | 55 | 1011.2 |
| 20260504004505 | 47 | 86 | 0.0 | 1.7 | 0.00 | 0.00 | 0.00 | 55 | 1013.3 |
| 20260504003945 | 48 | 121 | 0.9 | 2.6 | 0.00 | 0.00 | 0.00 | 54 | 1011.2 |
| 20260504003056 | 47 | 91 | 0.0 | 1.7 | 0.00 | 0.00 | 0.00 | 54 | 1013.1 |
| 20260504003044 | 48 | 119 | 0.9 | 1.7 | 0.00 | 0.00 | 0.00 | 54 | 1011.1 |
| 20260504001504 | 48 | 81 | 0.0 | 3.5 | 0.00 | 0.00 | 0.00 | 53 | 1013.1 |
| 20260504001245 | 49 | 117 | 0.9 | 4.3 | 0.00 | 0.00 | 0.00 | 51 | 1011.0 |
| 20260504000346 | 49 | 128 | 1.7 | 7.8 | 0.00 | 0.00 | 0.00 | 51 | 1011.0 |
| 20260504000105 | 48 | 214 | 0.9 | 7.8 | 0.00 | 0.00 | 0.00 | 51 | 1013.0 |
| 20260503235444 | 49 | 123 | 0.9 | 5.2 | 0.00 | 0.00 | 0.00 | 51 | 1010.8 |
| 20260503234504 | 49 | 131 | 0.0 | 2.6 | 0.00 | 0.00 | 0.00 | 50 | 1013.0 |
| 20260503233644 | 50 | 171 | 2.6 | 13.9 | 0.00 | 0.00 | 0.00 | 47 | 1011.0 |
| 20260503233103 | 50 | 344 | 3.5 | 14.8 | 0.00 | 0.00 | 0.00 | 46 | 1012.9 |
| 20260503232744 | 51 | 129 | 2.6 | 13.9 | 0.00 | 0.00 | 0.00 | 47 | 1010.8 |
| 20260503231845 | 51 | 16 | 1.7 | 7.0 | 0.00 | 0.00 | 0.00 | 46 | 1011.0 |
| 20260503231502 | 51 | 25 | 0.0 | 7.0 | 0.00 | 0.00 | 0.00 | 45 | 1013.0 |
| 20260503230945 | 52 | 337 | 2.6 | 8.7 | 0.00 | 0.00 | 0.00 | 45 | 1010.9 |
| 20260503230044 | 52 | 84 | 1.7 | 5.2 | 0.00 | 0.00 | 0.00 | 45 | 1010.8 |
| 20260503225145 | 52 | 59 | 1.7 | 7.8 | 0.00 | 0.00 | 0.00 | 44 | 1010.7 |
| 20260503224503 | 51 | 117 | 2.6 | 7.0 | 0.00 | 0.00 | 0.00 | 44 | 1012.8 |
| 20260503224244 | 52 | 47 | 2.6 | 7.0 | 0.00 | 0.00 | 0.00 | 44 | 1010.7 |
| 20260503223344 | 52 | 356 | 1.7 | 7.0 | 0.00 | 0.00 | 0.00 | 44 | 1010.7 |
| 20260503223103 | 52 | 326 | 0.9 | 6.1 | 0.00 | 0.00 | 0.00 | 44 | 1012.8 |
| 20260503222445 | 52 | 356 | 2.6 | 7.0 | 0.00 | 0.00 | 0.00 | 44 | 1010.7 |
| 20260503221545 | 52 | 10 | 2.6 | 9.6 | 0.00 | 0.00 | 0.00 | 44 | 1010.6 |
| 20260503221502 | 52 | 299 | 3.5 | 8.7 | 0.00 | 0.00 | 0.00 | 44 | 1012.8 |
| 20260503220644 | 52 | 3 | 2.6 | 9.6 | 0.00 | 0.00 | 0.00 | 44 | 1010.7 |
| 20260503215744 | 52 | 353 | 3.5 | 9.6 | 0.00 | 0.00 | 0.00 | 45 | 1010.7 |
| 20260503214844 | 52 | 29 | 2.6 | 9.6 | 0.00 | 0.00 | 0.00 | 45 | 1010.7 |
| 20260503214507 | 51 | 27 | 2.6 | 9.6 | 0.00 | 0.00 | 0.00 | 45 | 1012.9 |
| 20260503213944 | 52 | 255 | 2.6 | 9.6 | 0.00 | 0.00 | 0.00 | 44 | 1010.6 |
| 20260503213103 | 52 | 135 | 0.9 | 5.2 | 0.00 | 0.00 | 0.00 | 46 | 1012.8 |
| 20260503213044 | 52 | 95 | 1.7 | 5.2 | 0.00 | 0.00 | 0.00 | 45 | 1010.6 |
| 20260503212144 | 51 | 330 | 2.6 | 9.6 | 0.00 | 0.00 | 0.00 | 46 | 1010.5 |
| 20260503211503 | 51 | 8 | 1.7 | 9.6 | 0.00 | 0.00 | 0.00 | 46 | 1012.7 |
| 20260503210344 | 52 | 359 | 2.6 | 8.7 | 0.00 | 0.00 | 0.00 | 45 | 1010.5 |
| 20260503210105 | 51 | 146 | 1.7 | 6.1 | 0.00 | 0.00 | 0.00 | 45 | 1012.9 |
| 20260503205444 | 52 | 347 | 3.5 | 10.4 | 0.00 | 0.00 | 0.00 | 45 | 1010.6 |
| 20260503204544 | 52 | 325 | 3.5 | 9.6 | 0.00 | 0.00 | 0.00 | 45 | 1010.7 |
| 20260503203644 | 52 | 344 | 4.3 | 13.9 | 0.00 | 0.00 | 0.00 | 46 | 1010.7 |
| 20260503203102 | 52 | 40 | 3.5 | 8.7 | 0.00 | 0.00 | 0.00 | 46 | 1013.0 |
| 20260503202744 | 51 | 341 | 2.6 | 8.7 | 0.00 | 0.00 | 0.00 | 45 | 1010.8 |
| 20260503201844 | 51 | 58 | 2.6 | 9.6 | 0.00 | 0.00 | 0.00 | 44 | 1010.7 |
| 20260503201502 | 51 | 332 | 1.7 | 9.6 | 0.00 | 0.00 | 0.00 | 45 | 1013.0 |
| 20260503200944 | 51 | 348 | 3.5 | 8.7 | 0.00 | 0.00 | 0.00 | 45 | 1010.7 |
| 20260503200044 | 52 | 32 | 2.6 | 8.7 | 0.00 | 0.00 | 0.00 | 43 | 1011.1 |
| 20260503195144 | 52 | 346 | 2.6 | 10.4 | 0.00 | 0.00 | 0.00 | 44 | 1011.0 |
| 20260503194503 | 51 | 99 | 1.7 | 9.6 | 0.00 | 0.00 | 0.00 | 43 | 1013.4 |
| 20260503193344 | 52 | 326 | 4.3 | 10.4 | 0.00 | 0.00 | 0.00 | 43 | 1011.2 |
| 20260503193104 | 52 | 248 | 4.3 | 10.4 | 0.00 | 0.00 | 0.00 | 44 | 1013.6 |
| 20260503192444 | 52 | 330 | 3.5 | 10.4 | 0.00 | 0.00 | 0.00 | 45 | 1011.2 |
| 20260503191544 | 51 | 340 | 4.3 | 12.2 | 0.00 | 0.00 | 0.00 | 45 | 1011.3 |
| 20260503191503 | 51 | 309 | 4.3 | 12.2 | 0.00 | 0.00 | 0.00 | 46 | 1013.7 |
| 20260503190644 | 52 | 351 | 3.5 | 13.9 | 0.00 | 0.00 | 0.00 | 47 | 1011.5 |
| 20260503190105 | 51 | 25 | 5.2 | 13.9 | 0.00 | 0.00 | 0.00 | 46 | 1013.9 |
| 20260503185744 | 51 | 329 | 3.5 | 9.6 | 0.00 | 0.00 | 0.00 | 46 | 1011.5 |
| 20260503184844 | 50 | 333 | 4.3 | 9.6 | 0.00 | 0.00 | 0.00 | 52 | 1011.8 |
| 20260503184503 | 49 | 283 | 2.6 | 8.7 | 0.00 | 0.00 | 0.00 | 48 | 1014.2 |
| 20260503183944 | 49 | 336 | 3.5 | 8.7 | 0.00 | 0.00 | 0.00 | 50 | 1011.9 |
| 20260503183107 | 49 | 343 | 3.5 | 7.0 | 0.00 | 0.00 | 0.00 | 49 | 1014.4 |
| 20260503183044 | 49 | 320 | 3.5 | 7.8 | 0.00 | 0.00 | 0.00 | 49 | 1012.0 |
| 20260503182145 | 50 | 319 | 2.6 | 7.0 | 0.00 | 0.00 | 0.00 | 48 | 1011.9 |
| 20260503181506 | 50 | 343 | 3.5 | 10.4 | 0.00 | 0.00 | 0.00 | 47 | 1014.2 |
| 20260503181244 | 50 | 331 | 3.5 | 10.4 | 0.00 | 0.00 | 0.00 | 47 | 1012.0 |
| 20260503180346 | 52 | 346 | 3.5 | 9.6 | 0.00 | 0.00 | 0.00 | 45 | 1011.7 |
| 20260503180109 | 51 | 314 | 3.5 | 9.6 | 0.00 | 0.00 | 0.00 | 45 | 1014.2 |
| 20260503175444 | 52 | 337 | 3.5 | 8.7 | 0.00 | 0.00 | 0.00 | 47 | 1011.8 |
| 20260503174545 | 50 | 352 | 4.3 | 8.7 | 0.00 | 0.00 | 0.00 | 50 | 1012.0 |
| 20260503174503 | 50 | 330 | 4.3 | 8.7 | 0.00 | 0.00 | 0.00 | 47 | 1014.4 |
| 20260503173644 | 50 | 321 | 3.5 | 7.8 | 0.00 | 0.00 | 0.00 | 47 | 1012.1 |
| 20260503173111 | 49 | 333 | 3.5 | 8.7 | 0.00 | 0.00 | 0.00 | 50 | 1014.6 |
| 20260503172744 | 50 | 335 | 3.5 | 9.6 | 0.00 | 0.00 | 0.00 | 45 | 1012.2 |
| 20260503171844 | 50 | 327 | 4.3 | 10.4 | 0.00 | 0.00 | 0.00 | 46 | 1012.2 |
| 20260503171502 | 50 | 354 | 3.5 | 8.7 | 0.00 | 0.00 | 0.00 | 49 | 1014.7 |